Location: Ide
(53.1147°N, 6.5888°E)
Time: 04:30:02
(UTC+00:00)

Daily predictions for brighter satellites

Satellite Brightness Start Highest point End
(mag) Time Altitude Azimuth Time Altitude Azimuth Time Altitude Azimuth
Cosmos 1758 Rocket 4.4 00:03:03 10° NNW 00:06:37 39° WNW 00:06:37 39° WNW
Cosmos 1726 Rocket 4.5 00:07:11 36° E 00:07:14 36° E 00:11:07 10° NNE
Cosmos 1331 Rocket 4.0 00:06:53 61° WSW 00:07:43 75° WNW 00:13:00 10° NNE
ATLAS 2AS CENTAUR R/B 2.6 00:09:45 40° SW 00:12:32 85° NW 00:19:23 10° NE
DELTA 2 DEB (DPAF) 4.3 00:09:08 10° NNE 00:11:57 49° NE 00:11:57 49° NE
IDEFIX/ARIANE 42P 4.3 00:11:00 10° NE 00:14:56 21° E 00:16:41 18° ESE
Meteor 1-20 Rocket 4.5 00:12:16 10° NNW 00:17:30 49° W 00:18:03 47° WSW
Cosmos 1900 4.2 00:17:30 68° WSW 00:18:07 82° NW 00:23:05 10° NE
Meteor 1-5 Rocket 4.0 00:14:37 10° NNW 00:20:01 82° W 00:20:58 62° S
Cosmos 1953 Rocket 3.9 00:17:20 10° N 00:21:44 57° ENE 00:22:18 53° ESE
Cosmos 1980 Rocket 2.3 00:18:24 10° NW 00:23:56 53° WSW 00:24:20 52° SW
Cosmos 1110 Rocket 4.4 00:23:00 44° WSW 00:24:16 55° WNW 00:29:30 10° NNE
USA 234 3.5 00:20:54 10° E 00:27:23 68° N 00:33:53 10° WNW
Cosmos 44 Rocket 4.4 00:29:47 32° ESE 00:30:00 32° ESE 00:34:33 10° ENE
Cosmos 1825 Rocket 3.5 00:28:11 10° NNW 00:32:19 71° WNW 00:32:19 71° WNW
COSMOS 2406 4.4 00:32:29 27° SE 00:33:57 30° ESE 00:38:53 10° NE
Meteor 2-10 4.1 00:29:29 10° NNW 00:34:58 73° W 00:36:02 57° SSW
Cosmos 2369 3.6 00:29:35 10° NW 00:35:17 75° WSW 00:36:38 53° S
Cosmos 1634 Rocket 4.4 00:35:56 36° SSE 00:38:12 55° E 00:44:13 10° NNE
CZ-4C R/B 4.1 00:38:10 10° N 00:40:24 37° NNW 00:40:24 37° NNW
Cosmos 2084 3.3 00:46:23 77° ESE 00:46:23 77° ESE 00:50:24 10° NE
Cosmos 1627 Rocket 4.4 00:40:05 10° NNW 00:46:22 79° W 00:48:29 45° S
Spot 1 4.1 00:42:44 10° NNE 00:46:49 59° ESE 00:47:07 58° SE
Cosmos 2360 Rocket 3.3 00:45:30 10° NNW 00:50:58 44° NE 00:56:23 10° ESE
Cosmos 2333 Rocket 2.5 00:46:28 10° NNW 00:52:08 66° NE 00:57:05 14° SE
Cosmos-2242 3.2 00:52:12 52° SE 00:52:40 56° E 00:56:47 10° NNE
USA 281 3.2 00:51:27 19° SE 00:56:22 83° ENE 01:02:59 10° NNW
Cosmos 1452 Rocket 4.3 00:58:56 33° W 01:00:38 43° NW 01:05:39 10° NNE
Cosmos 2082 Rocket 2.2 00:59:24 48° SSW 01:01:03 81° ESE 01:06:49 10° NNE
Cosmos 1833 Rocket 4.0 01:00:04 20° W 01:03:11 33° NW 01:08:15 10° NNE
Cosmos 2098 Rocket 4.3 01:03:15 36° WSW 01:04:49 45° WNW 01:10:11 10° N
Meteor 2-2 Rocket 4.4 01:02:52 39° SSE 01:04:55 66° E 01:10:31 10° NNE
Cosmos 2278 3.9 01:00:12 10° NNW 01:05:56 73° NE 01:11:11 12° SE
Cosmos 2322 Rocket 2.8 01:00:49 10° NNW 01:06:23 57° NE 01:11:57 10° SE
Cosmos 1486 Rocket 4.0 01:01:31 10° NNW 01:06:45 79° ENE 01:09:36 28° SSE
Cosmos 2279 Rocket 4.3 01:03:59 32° SSE 01:06:53 63° E 01:13:03 10° NNE
NPP 4.5 01:02:21 10° NNE 01:07:29 42° E 01:09:57 27° SSE
Resurs 1-4 Rocket 4.3 01:04:17 10° NE 01:07:56 19° E 01:11:34 10° SE
Cosmos 1867 4.0 01:06:15 32° WSW 01:08:36 57° NW 01:14:01 10° NE
Cosmos 2221 4.1 01:07:40 21° SE 01:09:17 27° E 01:12:47 10° NNE
NOSS 3-3 (A) 4.4 01:14:12 33° SSE 01:15:50 41° ESE 01:21:36 10° NE
ACS3 Solar Sail 1.7 01:10:05 10° N 01:16:07 78° WNW 01:18:33 39° SSW
Cosmos 1777 Rocket 4.0 01:12:06 10° NNW 01:17:25 83° ENE 01:20:41 24° SSE
Cosmos 1606 Rocket 4.3 01:18:01 36° W 01:18:38 38° WNW 01:22:47 10° N
Cosmos 2219 Rocket 3.2 01:14:52 10° NNW 01:20:17 46° NE 01:25:43 10° ESE
SL-16 R/B 2.1 01:15:48 10° NW 01:21:30 77° WSW 01:24:53 25° SSE
Cosmos 1437 Rocket 4.3 01:22:27 21° WNW 01:22:27 21° WNW 01:25:04 10° NNW
H-2A R/B 4.4 01:19:16 10° NE 01:22:35 17° E 01:25:55 10° SE
GP-B 3.3 01:18:33 10° N 01:22:49 53° W 01:23:25 48° WSW
CZ-4C R/B 1.7 01:22:06 50° SW 01:23:21 88° SE 01:29:06 10° NE
Cosmos 1271 Rocket 4.0 01:27:38 25° SE 01:28:37 29° E 01:31:41 10° NNE
Meteor 1-14 Rocket 4.3 01:22:55 10° NNW 01:28:44 77° ENE 01:32:37 21° SSE
ATLAS 3B R/B 3.8 01:22:42 10° WNW 01:28:49 26° WSW 01:29:23 26° WSW
SL-4 R/B 3.4 01:31:34 23° SE 01:31:34 23° SE 01:33:12 10° SE
CZ-2C R/B 4.5 01:30:23 15° W 01:30:48 15° W 01:33:54 10° NW
USA 267 4.2 01:25:21 10° ENE 01:31:09 32° SE 01:34:01 23° S
NOSS 3-3 (C) 4.3 01:30:27 31° S 01:32:32 45° ESE 01:38:30 10° NE
Cosmos 2058 Rocket 3.1 01:32:04 50° SW 01:33:06 69° WNW 01:37:30 10° N
Cosmos 2266 Rocket 4.1 01:28:09 10° N 01:34:19 74° ENE 01:39:09 17° SSE
Cosmos 1470 2.3 01:32:28 10° N 01:35:49 77° ENE 01:36:16 63° SE
Gbstr 26 Del rocket 3.4 01:37:23 36° SE 01:37:23 36° SE 01:39:51 10° ESE
Okean 1 4.3 01:37:01 27° WNW 01:37:03 27° WNW 01:40:08 10° N
KORONAS-FOTON 3.2 01:38:28 78° SSW 01:38:40 85° W 01:42:02 10° N
Cosmos 909 Rocket 4.1 01:37:58 31° SW 01:41:12 77° NW 01:47:44 10° NE
Cosmos 1536 3.3 01:43:33 10° NNW 01:46:48 36° W 01:46:48 36° W
Cosmos 2333 4.3 01:41:17 10° NNW 01:46:58 81° ENE 01:52:41 10° SE
DMSP B5D2-2 4.3 01:45:23 10° SSE 01:50:30 72° ENE 01:55:41 10° NNW
NOSS 3-4 (A) 3.8 01:45:12 10° NW 01:51:41 81° NE 01:59:23 10° SE
Cosmos 1812 Rocket 4.0 01:49:34 26° SSE 01:51:49 56° E 01:56:05 10° NNE
Meteor 2-6 Rocket 4.3 01:49:05 30° SSW 01:52:08 85° WNW 01:58:06 10° NNE
NOSS 3-4 (C) 3.8 01:45:44 10° NW 01:52:15 81° NE 01:59:57 10° SE
Meteor 1-26 Rocket 4.5 01:51:48 31° SW 01:54:01 50° WNW 01:59:18 10° N
IDEFIX/ARIANE 42P 2.6 01:49:44 10° NNE 01:54:55 71° WNW 01:57:22 32° SSW
Envisat 3.8 01:52:35 10° NNE 01:57:28 45° E 02:01:23 15° SSE
Aureole 1 Rocket 3.6 01:54:30 10° NNW 01:58:25 59° ENE 02:03:19 10° SE
Cosmos 2084 Rocket 3.2 01:57:57 10° NW 02:02:08 71° SW 02:06:22 10° SE
Cosmos 1707 3.4 02:03:05 25° WNW 02:03:05 25° WNW 02:05:23 10° NNW
ATLAS 2AS CENTAUR R/B 3.8 01:57:47 10° W 02:04:14 40° NNW 02:10:36 10° NE
Iridium 4 Rocket 3.6 02:03:00 18° S 02:06:29 68° E 02:11:37 10° N
MOZ.5/SAFIR/RUBIN 5/SL-8 3.7 02:05:32 23° S 02:08:24 65° WSW 02:13:02 10° NNW
Cosmos 1975 2.7 02:05:59 10° NNW 02:09:33 53° W 02:10:35 38° SSW
H-2A R/B 2.3 02:06:26 13° SSE 02:09:34 69° ENE 02:13:08 10° N
Cosmos 990 Rocket 3.9 02:04:57 10° NNW 02:10:04 70° WSW 02:15:11 10° SSE
USA 234 3.2 02:03:50 10° ESE 02:10:24 77° SSW 02:16:59 10° WNW
ADEOS II 3.3 02:06:06 10° NNE 02:10:57 37° E 02:15:46 10° SSE
Cosmos 44 Rocket 3.7 02:08:21 26° WSW 02:11:10 63° NW 02:16:21 10° NE
ALOS 3.0 02:11:12 10° NNE 02:15:37 48° E 02:19:31 13° S
MSX 4.1 02:10:46 10° N 02:16:22 54° WNW 02:19:47 24° SW
Cosmos 1763 Rocket 3.6 02:13:16 23° SSW 02:16:38 73° ESE 02:21:56 10° NNE
Cosmos 1238 Rocket 3.7 02:15:05 15° SSE 02:17:00 31° E 02:19:44 10° NNE
COSMOS 2406 3.4 02:14:30 25° SW 02:17:54 62° NW 02:23:39 10° NNE
COSMOS 2428 3.9 02:13:47 10° NNW 02:19:19 46° NE 02:24:47 10° ESE
CZ-2D R/B 2.7 02:14:28 10° NNE 02:19:39 56° ESE 02:24:33 12° S
SL-16 R/B 3.7 02:16:30 10° SE 02:22:23 45° ENE 02:28:19 10° N
ADEOS Rocket 3.6 02:15:05 10° NNE 02:22:35 78° WNW 02:28:49 18° SSW
Cosmos 1898 Rocket 3.9 02:23:00 10° NNW 02:28:10 65° ENE 02:33:17 10° SE
Spot 2 4.3 02:24:33 10° SSE 02:29:23 86° WSW 02:34:24 10° NNW
Cosmos 1354 Rocket 4.2 02:27:27 10° NW 02:32:32 48° WSW 02:37:33 10° S
Cosmos 1937 Rocket 4.3 02:27:33 10° NNW 02:32:41 55° ENE 02:37:45 10° SE
Cosmos 220 Rocket 4.3 02:32:09 24° WSW 02:34:12 46° WNW 02:38:07 10° NNE
FENGYUN 3A 4.1 02:29:25 10° N 02:34:39 49° WNW 02:38:14 20° SW
Cosmos 2360 Rocket 2.5 02:29:37 10° NW 02:34:59 44° WSW 02:40:19 10° S
Cosmos 2333 Rocket 3.1 02:31:18 10° NW 02:36:02 28° WSW 02:38:59 18° SSW
Cosmos 1607 4.3 02:31:28 18° WSW 02:36:04 59° NW 02:42:18 10° NE
Cosmos 1842 4.1 02:35:26 22° W 02:36:13 24° WNW 02:38:54 10° NNW
Alouette 2 Rocket 3.2 02:32:41 10° NNW 02:37:02 85° WSW 02:40:37 10° SSE
USA 305 1.4 02:38:24 40° NW 02:38:47 49° N 02:40:09 10° ENE
EP 1 4.2 02:36:35 10° NW 02:39:10 59° SW 02:41:51 10° SE
USA 281 4.1 02:38:17 18° SW 02:41:33 26° W 02:46:56 10° NW
Meteor 2-10 Rocket 4.0 02:37:25 10° N 02:42:28 63° ENE 02:47:40 10° SSE
H-2A R/B 4.2 02:41:12 10° NE 02:44:23 22° E 02:47:31 10° SE
Cosmos 540 Rocket 3.4 02:41:19 18° SSW 02:45:08 78° WNW 02:50:20 10° NNE
Cosmos 2082 Rocket 3.6 02:41:13 12° W 02:45:47 29° NW 02:50:43 10° NNE
Cosmos 2221 3.2 02:43:58 21° SW 02:46:11 35° WNW 02:50:02 10° N
NPP 4.4 02:42:43 10° N 02:47:41 39° WNW 02:51:27 16° WSW
Resurs 1-4 Rocket 2.1 02:43:02 10° NNE 02:48:23 84° WNW 02:53:19 12° SSW
Cosmos 2322 Rocket 2.9 02:45:12 10° NW 02:50:10 32° WSW 02:55:07 10° SSW
Cosmos 468 Rocket 4.2 02:46:37 12° SSW 02:51:27 74° ESE 02:56:45 10° NNE
BREEZE-M DEB (TANK) 3.4 02:50:12 19° WSW 02:52:10 48° S 02:59:21 10° ESE
DNEPR-1 R/B 4.4 02:48:21 10° NW 02:53:27 51° SW 02:59:37 10° SSE
Cosmos 1766 Rocket 3.6 02:51:50 10° NNW 02:56:08 59° W 03:00:21 10° S
ACS3 Solar Sail 3.4 02:53:32 10° N 02:57:40 20° NW 03:01:52 10° W
Cosmos 1833 4.2 02:53:59 14° SSW 02:59:02 88° SE 03:04:46 10° NNE
H-2A R/B 2.1 02:57:24 10° NNE 03:02:33 88° WNW 03:07:47 10° SSW
Cosmos 1271 Rocket 3.8 03:01:02 16° WSW 03:02:53 24° WNW 03:05:48 10° N
Cosmos 2219 Rocket 2.5 02:58:57 10° NW 03:04:13 42° WSW 03:09:30 10° S
Cosmos 2237 Rocket 3.5 02:58:51 10° NNW 03:04:20 44° NE 03:09:45 10° ESE
SL-16 R/B 3.7 03:01:26 10° WNW 03:04:39 16° W 03:06:38 13° WSW
CRYOSAT 2 4.3 03:00:09 10° S 03:05:02 78° W 03:09:57 10° N
RESURS DK-1 4.1 03:01:50 10° NNW 03:05:33 36° NE 03:09:14 10° ESE
Cosmos 44 4.3 03:00:17 10° NW 03:05:39 57° NE 03:10:54 10° ESE
Meteor 1-11 Rocket 4.5 03:00:39 10° NNW 03:05:56 35° W 03:11:07 10° SSW
SL-4 R/B 3.3 03:05:08 15° WSW 03:06:16 17° SW 03:08:49 10° S
NOSS 3-3 (A) 4.2 03:01:35 13° WSW 03:06:27 58° NNW 03:13:06 10° NE
Meteor 2-11 Rocket 4.4 03:00:42 10° NNW 03:06:51 73° W 03:12:58 10° S
SL-14 R/B 4.5 03:06:17 10° SSE 03:09:57 42° E 03:13:39 10° NNE
CZ-4C R/B 3.4 03:07:40 10° W 03:12:15 36° NNW 03:18:06 10° NE
USA 290 2.6 03:10:18 15° SW 03:12:40 47° WNW 03:15:46 10° NNE
ARGOS 3.7 03:08:08 10° NNE 03:13:30 59° ESE 03:18:46 10° S
Cosmos 1408 Rocket 4.2 03:10:01 10° N 03:14:16 57° ENE 03:18:28 10° SSE
USA 267 3.4 03:08:13 10° ENE 03:14:49 78° SSE 03:21:22 10° WSW
METEOR-M 4.2 03:10:47 10° NNE 03:16:10 85° ESE 03:21:29 10° SSW
Gbstr 26 Del rocket 4.2 03:19:26 10° WSW 03:21:46 16° SW 03:24:09 10° S
NOSS 3-3 (C) 4.3 03:17:53 10° WSW 03:23:19 56° NNW 03:30:01 10° NE
Cosmos 2322 3.7 03:19:00 10° NW 03:24:42 70° WSW 03:30:21 10° SSE
NOSS 3 (A) 4.0 03:28:24 10° NW 03:30:35 57° SW 03:33:22 10° SE
ISS -2.1 03:29:42 10° SSW 03:32:30 25° SSE 03:35:20 10° E
IDEFIX/ARIANE 42P 4.4 03:30:29 10° NNW 03:33:32 16° NW 03:36:36 10° W
Envisat 3.9 03:31:46 10° N 03:36:18 34° WNW 03:40:48 10° SW
BREEZE-M DEB (TANK) 3.4 03:32:18 10° SW 03:37:34 30° SSE 03:40:10 10° ESE
Aureole 1 Rocket 4.4 03:36:59 10° NW 03:40:10 21° WSW 03:43:52 10° SSW
Meteor 2-4 Rocket 3.9 03:35:38 10° SW 03:40:51 50° WNW 03:46:04 10° N
Cosmos 1461 2.7 03:37:41 10° SW 03:41:25 74° SE 03:45:08 10° NE
NOSS 3-4 (A) 4.4 03:36:17 10° WNW 03:42:17 34° WSW 03:49:10 10° S
NOSS 3-4 (C) 4.4 03:36:49 10° WNW 03:42:51 34° WSW 03:49:45 10° S
AQUA 3.8 03:39:04 10° NNE 03:43:47 83° WNW 03:48:27 10° SSW
H-2A R/B 4.1 03:42:18 10° WSW 03:43:57 13° W 03:45:36 10° WNW
Meteor 1-28 Rocket 3.3 03:41:29 10° SSE 03:44:42 65° ENE 03:47:57 10° N
NOSS 0 Rocket 3.9 03:38:51 10° NW 03:45:02 72° WSW 03:51:10 10° SSE
Cosmos 1066 Rocket 4.2 03:40:57 10° SSW 03:46:15 62° WNW 03:51:35 10° N
CZ-3 R/B 4.4 03:51:15 10° WSW 04:07:03 21° SSW 04:14:26 10° SSE
